Time,TemperatureF,DewpointF,PressureIn,WindDirection,WindDirectionDegrees,WindSpeedMPH,WindSpeedGustMPH,Humidity,HourlyPrecipIn,Conditions,Clouds,dailyrainin,SoftwareType,DateUTC
2013-09-11 00:01:00,72.1,69.7,30.08,SE,142,0.0,0.0,92,0.00,,---,0.00,VWS V14.01,2013-09-11 04:01:00,
2013-09-11 00:02:00,72.1,69.7,30.08,SE,142,0.0,0.0,92,0.00,,---,0.00,VWS V14.01,2013-09-11 04:02:00,
2013-09-11 00:05:00,72.1,69.7,30.08,SE,142,0.0,0.0,92,0.00,,---,0.00,VWS V14.01,2013-09-11 04:05:00,
2013-09-11 00:06:00,72.1,69.7,30.08,SE,142,0.0,0.0,92,0.00,,---,0.00,VWS V14.01,2013-09-11 04:06:00,
2013-09-11 00:11:00,72.1,69.7,30.08,SE,142,0.0,0.0,92,0.00,,---,0.00,VWS V14.01,2013-09-11 04:11:00,
2013-09-11 00:16:00,72.1,69.7,30.08,SE,126,0.0,1.0,92,0.00,,---,0.00,VWS V14.01,2013-09-11 04:16:00,
2013-09-11 00:20:00,72.1,69.7,30.08,East,94,0.0,0.0,92,0.00,,---,0.00,VWS V14.01,2013-09-11 04:20:00,
2013-09-11 00:25:00,72.1,69.7,30.08,ESE,110,0.0,0.0,92,0.00,,---,0.00,VWS V14.01,2013-09-11 04:25:00,
2013-09-11 00:30:00,72.1,69.7,30.08,ESE,103,0.0,0.0,92,0.00,,---,0.00,VWS V14.01,2013-09-11 04:30:00,
2013-09-11 00:35:00,72.1,69.7,30.09,SE,126,0.0,0.0,92,0.00,,---,0.00,VWS V14.01,2013-09-11 04:35:00,
2013-09-11 00:41:00,72.3,69.8,30.08,ESE,117,0.0,0.0,92,0.00,,---,0.00,VWS V14.01,2013-09-11 04:41:00,
2013-09-11 00:46:00,72.3,69.8,30.08,ESE,117,0.0,0.0,92,0.00,,---,0.00,VWS V14.01,2013-09-11 04:46:00,
2013-09-11 00:51:00,72.3,69.8,30.08,ESE,117,0.0,0.0,92,0.00,,---,0.00,VWS V14.01,2013-09-11 04:51:00,
2013-09-11 00:56:00,72.3,69.8,30.08,ESE,117,0.0,0.0,92,0.00,,---,0.00,VWS V14.01,2013-09-11 04:56:00,
2013-09-11 01:01:00,72.3,69.8,30.08,ESE,117,0.0,0.0,92,0.00,,---,0.00,VWS V14.01,2013-09-11 05:01:00,
2013-09-11 01:07:00,72.3,69.8,30.08,ESE,117,0.0,0.0,92,0.00,,---,0.00,VWS V14.01,2013-09-11 05:07:00,
2013-09-11 01:12:00,72.3,69.8,30.08,ESE,117,0.0,0.0,92,0.00,,---,0.00,VWS V14.01,2013-09-11 05:12:00,
2013-09-11 01:17:00,72.1,69.7,30.08,ESE,117,0.0,0.0,92,0.00,,---,0.00,VWS V14.01,2013-09-11 05:17:00,
2013-09-11 01:22:00,72.1,69.7,30.08,ESE,117,0.0,0.0,92,0.00,,---,0.00,VWS V14.01,2013-09-11 05:22:00,
2013-09-11 01:28:00,72.1,70.0,30.08,ESE,117,0.0,0.0,93,0.00,,---,0.00,VWS V14.01,2013-09-11 05:28:00,
2013-09-11 01:33:00,72.1,69.7,30.08,ESE,117,0.0,0.0,92,0.00,,---,0.00,VWS V14.01,2013-09-11 05:33:00,
2013-09-11 01:38:00,72.1,70.0,30.08,ESE,117,0.0,0.0,93,0.00,,---,0.00,VWS V14.01,2013-09-11 05:38:00,
2013-09-11 01:43:00,72.1,70.0,30.07,ESE,117,0.0,0.0,93,0.00,,---,0.00,VWS V14.01,2013-09-11 05:43:00,
2013-09-11 01:48:00,72.3,70.2,30.07,ESE,117,0.0,0.0,93,0.00,,---,0.00,VWS V14.01,2013-09-11 05:48:00,
2013-09-11 01:53:00,72.3,70.2,30.07,ESE,117,0.0,0.0,93,0.00,,---,0.00,VWS V14.01,2013-09-11 05:53:00,
2013-09-11 01:58:00,72.3,70.2,30.07,ESE,117,0.0,0.0,93,0.00,,---,0.00,VWS V14.01,2013-09-11 05:58:00,
2013-09-11 02:03:00,72.3,70.2,30.07,ESE,117,0.0,0.0,93,0.00,,---,0.00,VWS V14.01,2013-09-11 06:03:00,
2013-09-11 02:08:00,72.3,70.2,30.07,ESE,116,0.0,0.0,93,0.00,,---,0.00,VWS V14.01,2013-09-11 06:08:00,
2013-09-11 02:13:00,72.3,70.2,30.07,ESE,116,0.0,0.0,93,0.00,,---,0.00,VWS V14.01,2013-09-11 06:13:00,
2013-09-11 02:18:00,72.3,70.2,30.07,SE,132,0.0,0.0,93,0.00,,---,0.00,VWS V14.01,2013-09-11 06:18:00,
2013-09-11 02:23:00,72.3,70.2,30.07,ESE,117,0.0,0.0,93,0.00,,---,0.00,VWS V14.01,2013-09-11 06:23:00,
2013-09-11 02:28:00,72.3,70.2,30.07,ESE,117,0.0,0.0,93,0.00,,---,0.00,VWS V14.01,2013-09-11 06:28:00,
2013-09-11 02:33:00,72.3,70.2,30.07,ESE,117,0.0,0.0,93,0.00,,---,0.00,VWS V14.01,2013-09-11 06:33:00,
2013-09-11 02:38:00,72.3,70.2,30.07,ESE,117,0.0,0.0,93,0.00,,---,0.00,VWS V14.01,2013-09-11 06:38:00,
2013-09-11 02:43:00,72.3,70.2,30.07,ESE,117,0.0,0.0,93,0.00,,---,0.00,VWS V14.01,2013-09-11 06:43:00,
2013-09-11 02:48:00,72.3,70.2,30.06,ESE,117,0.0,0.0,93,0.00,,---,0.00,VWS V14.01,2013-09-11 06:48:00,
2013-09-11 02:54:00,72.3,70.2,30.06,ESE,117,0.0,0.0,93,0.00,,---,0.00,VWS V14.01,2013-09-11 06:54:00,
2013-09-11 02:59:00,72.3,70.2,30.06,ESE,117,0.0,0.0,93,0.00,,---,0.00,VWS V14.01,2013-09-11 06:59:00,
2013-09-11 03:04:00,72.3,70.2,30.06,ESE,117,0.0,0.0,93,0.00,,---,0.00,VWS V14.01,2013-09-11 07:04:00,
2013-09-11 03:10:00,72.3,70.2,30.06,ESE,117,0.0,0.0,93,0.00,,---,0.00,VWS V14.01,2013-09-11 07:10:00,
2013-09-11 03:15:00,72.3,70.2,30.06,ESE,117,0.0,0.0,93,0.00,,---,0.00,VWS V14.01,2013-09-11 07:15:00,
2013-09-11 03:21:00,72.3,70.2,30.06,ESE,117,0.0,0.0,93,0.00,,---,0.00,VWS V14.01,2013-09-11 07:21:00,
2013-09-11 03:26:00,72.1,70.0,30.06,ESE,117,0.0,0.0,93,0.00,,---,0.00,VWS V14.01,2013-09-11 07:26:00,
2013-09-11 03:31:00,72.1,70.0,30.06,ESE,117,0.0,0.0,93,0.00,,---,0.00,VWS V14.01,2013-09-11 07:31:00,
2013-09-11 03:36:00,72.0,69.9,30.06,ESE,117,0.0,0.0,93,0.00,,---,0.00,VWS V14.01,2013-09-11 07:36:00,
2013-09-11 03:41:00,72.0,69.9,30.06,ESE,117,0.0,0.0,93,0.00,,---,0.00,VWS V14.01,2013-09-11 07:41:00,
2013-09-11 03:46:00,72.0,69.9,30.06,ESE,117,0.0,0.0,93,0.00,,---,0.00,VWS V14.01,2013-09-11 07:46:00,
2013-09-11 03:51:00,71.8,69.7,30.06,ESE,117,0.0,0.0,93,0.00,,---,0.00,VWS V14.01,2013-09-11 07:51:00,
2013-09-11 03:56:00,71.8,69.7,30.06,ESE,117,0.0,0.0,93,0.00,,---,0.00,VWS V14.01,2013-09-11 07:56:00,
2013-09-11 04:02:00,71.6,69.5,30.06,ESE,117,0.0,0.0,93,0.00,,---,0.00,VWS V14.01,2013-09-11 08:02:00,
2013-09-11 04:07:00,71.6,69.5,30.06,ESE,117,0.0,0.0,93,0.00,,---,0.00,VWS V14.01,2013-09-11 08:07:00,
2013-09-11 04:12:00,71.5,69.4,30.06,ESE,117,0.0,0.0,93,0.00,,---,0.00,VWS V14.01,2013-09-11 08:12:00,
2013-09-11 04:17:00,71.3,68.9,30.06,ESE,117,0.0,0.0,92,0.00,,---,0.00,VWS V14.01,2013-09-11 08:17:00,
2013-09-11 04:22:00,70.9,68.5,30.06,ESE,117,0.0,0.0,92,0.00,,---,0.00,VWS V14.01,2013-09-11 08:22:00,
2013-09-11 04:27:00,70.9,68.8,30.06,ESE,117,0.0,0.0,93,0.00,,---,0.00,VWS V14.01,2013-09-11 08:27:00,
2013-09-11 04:33:00,70.9,68.8,30.06,ESE,117,0.0,0.0,93,0.00,,---,0.00,VWS V14.01,2013-09-11 08:33:00,
2013-09-11 04:39:00,71.1,69.0,30.06,ESE,117,0.0,0.0,93,0.00,,---,0.00,VWS V14.01,2013-09-11 08:39:00,
2013-09-11 04:44:00,71.1,69.0,30.06,ESE,117,0.0,0.0,93,0.00,,---,0.00,VWS V14.01,2013-09-11 08:44:00,
2013-09-11 04:49:00,70.9,68.8,30.06,ESE,117,0.0,0.0,93,0.00,,---,0.00,VWS V14.01,2013-09-11 08:49:00,
2013-09-11 04:54:00,70.9,69.1,30.06,ESE,117,0.0,0.0,94,0.00,,---,0.00,VWS V14.01,2013-09-11 08:54:00,
2013-09-11 05:00:00,70.9,69.1,30.06,ESE,117,0.0,0.0,94,0.00,,---,0.00,VWS V14.01,2013-09-11 09:00:00,
2013-09-11 05:05:00,70.9,69.1,30.06,ESE,117,0.0,0.0,94,0.00,,---,0.00,VWS V14.01,2013-09-11 09:05:00,
2013-09-11 05:11:00,70.9,69.1,30.06,ESE,117,0.0,0.0,94,0.00,,---,0.00,VWS V14.01,2013-09-11 09:11:00,
2013-09-11 05:16:00,70.8,69.0,30.06,ESE,117,0.0,0.0,94,0.00,,---,0.00,VWS V14.01,2013-09-11 09:16:00,
2013-09-11 05:21:00,70.8,69.0,30.06,ESE,117,0.0,0.0,94,0.00,,---,0.00,VWS V14.01,2013-09-11 09:21:00,
2013-09-11 05:26:00,70.6,68.8,30.06,ESE,117,0.0,0.0,94,0.00,,---,0.00,VWS V14.01,2013-09-11 09:26:00,
2013-09-11 05:32:00,70.6,68.8,30.06,ESE,117,0.0,0.0,94,0.00,,---,0.00,VWS V14.01,2013-09-11 09:32:00,
2013-09-11 05:37:00,70.6,68.8,30.06,ESE,117,0.0,0.0,94,0.00,,---,0.00,VWS V14.01,2013-09-11 09:37:00,
2013-09-11 05:42:00,70.6,68.8,30.06,ESE,117,0.0,0.0,94,0.00,,---,0.00,VWS V14.01,2013-09-11 09:42:00,
2013-09-11 05:47:00,70.4,68.6,30.06,ESE,117,0.0,0.0,94,0.00,,---,0.00,VWS V14.01,2013-09-11 09:47:00,
2013-09-11 05:53:00,70.4,68.6,30.06,ESE,117,0.0,0.0,94,0.00,,---,0.00,VWS V14.01,2013-09-11 09:53:00,
2013-09-11 05:59:00,70.3,68.5,30.07,ESE,117,0.0,0.0,94,0.00,,---,0.00,VWS V14.01,2013-09-11 09:59:00,
2013-09-11 06:04:00,69.9,68.1,30.07,ESE,117,0.0,0.0,94,0.00,,---,0.00,VWS V14.01,2013-09-11 10:04:00,
2013-09-11 06:10:00,69.8,68.0,30.07,ESE,117,0.0,0.0,94,0.00,,---,0.00,VWS V14.01,2013-09-11 10:10:00,
2013-09-11 06:15:00,69.8,68.0,30.07,ESE,117,0.0,0.0,94,0.00,,---,0.00,VWS V14.01,2013-09-11 10:15:00,
2013-09-11 06:20:00,69.8,68.0,30.07,ESE,117,0.0,0.0,94,0.00,,---,0.00,VWS V14.01,2013-09-11 10:20:00,
2013-09-11 06:26:00,69.8,68.3,30.07,ESE,117,0.0,0.0,95,0.00,,---,0.00,VWS V14.01,2013-09-11 10:26:00,
2013-09-11 06:31:00,69.8,68.3,30.08,ESE,117,0.0,0.0,95,0.00,,---,0.00,VWS V14.01,2013-09-11 10:31:00,
2013-09-11 06:36:00,69.9,68.4,30.08,ESE,117,0.0,0.0,95,0.00,,---,0.00,VWS V14.01,2013-09-11 10:36:00,
2013-09-11 06:42:00,69.9,68.4,30.08,ESE,117,0.0,0.0,95,0.00,,---,0.00,VWS V14.01,2013-09-11 10:42:00,
2013-09-11 06:47:00,69.9,68.4,30.08,ESE,117,0.0,0.0,95,0.00,,---,0.00,VWS V14.01,2013-09-11 10:47:00,
2013-09-11 06:52:00,69.9,68.4,30.08,ESE,117,0.0,0.0,95,0.00,,---,0.00,VWS V14.01,2013-09-11 10:52:00,
2013-09-11 06:57:00,69.8,68.3,30.08,ESE,117,0.0,0.0,95,0.00,,---,0.00,VWS V14.01,2013-09-11 10:57:00,
2013-09-11 07:02:00,69.8,68.3,30.08,ESE,117,0.0,0.0,95,0.00,,---,0.00,VWS V14.01,2013-09-11 11:02:00,
2013-09-11 07:08:00,69.6,68.1,30.09,ESE,117,0.0,0.0,95,0.00,,---,0.00,VWS V14.01,2013-09-11 11:08:00,
2013-09-11 07:13:00,69.8,68.3,30.09,ESE,117,0.0,0.0,95,0.00,,---,0.00,VWS V14.01,2013-09-11 11:13:00,
2013-09-11 07:19:00,69.8,68.6,30.09,ESE,117,0.0,0.0,96,0.00,,---,0.00,VWS V14.01,2013-09-11 11:19:00,
2013-09-11 07:24:00,69.9,68.7,30.09,ESE,117,0.0,0.0,96,0.00,,---,0.00,VWS V14.01,2013-09-11 11:24:00,
2013-09-11 07:29:00,70.1,68.9,30.09,ESE,117,0.0,0.0,96,0.00,,---,0.00,VWS V14.01,2013-09-11 11:29:00,
2013-09-11 07:34:00,70.3,69.1,30.08,ESE,117,0.0,0.0,96,0.00,,---,0.00,VWS V14.01,2013-09-11 11:34:00,
2013-09-11 07:39:00,70.6,69.4,30.08,ESE,117,0.0,0.0,96,0.00,,---,0.00,VWS V14.01,2013-09-11 11:39:00,
2013-09-11 07:45:00,70.9,69.7,30.08,ESE,117,0.0,0.0,96,0.00,,---,0.00,VWS V14.01,2013-09-11 11:45:00,
2013-09-11 07:50:00,71.1,69.9,30.08,ESE,117,0.0,0.0,96,0.00,,---,0.00,VWS V14.01,2013-09-11 11:50:00,
2013-09-11 07:55:00,71.5,70.3,30.09,ESE,117,0.0,0.0,96,0.00,,---,0.00,VWS V14.01,2013-09-11 11:55:00,
2013-09-11 08:00:00,71.5,70.3,30.09,ESE,117,0.0,0.0,96,0.00,,---,0.00,VWS V14.01,2013-09-11 12:00:00,
2013-09-11 08:05:00,71.6,70.4,30.09,ESE,117,0.0,1.0,96,0.00,,---,0.00,VWS V14.01,2013-09-11 12:05:00,
2013-09-11 08:10:00,71.8,70.6,30.09,East,98,0.0,1.0,96,0.00,,---,0.00,VWS V14.01,2013-09-11 12:10:00,
2013-09-11 08:16:00,71.8,70.6,30.09,SSE,166,0.0,0.0,96,0.00,,---,0.00,VWS V14.01,2013-09-11 12:16:00,
2013-09-11 08:22:00,72.0,70.8,30.09,SSE,166,0.0,0.0,96,0.00,,---,0.00,VWS V14.01,2013-09-11 12:22:00,
2013-09-11 08:27:00,72.0,70.8,30.09,SSE,166,0.0,0.0,96,0.00,,---,0.00,VWS V14.01,2013-09-11 12:27:00,
2013-09-11 08:32:00,72.1,70.9,30.09,SSE,165,0.0,0.0,96,0.00,,---,0.00,VWS V14.01,2013-09-11 12:32:00,
2013-09-11 08:37:00,72.3,71.1,30.09,SSE,165,0.0,0.0,96,0.00,,---,0.00,VWS V14.01,2013-09-11 12:37:00,
2013-09-11 08:42:00,72.5,71.3,30.09,SSE,165,0.0,0.0,96,0.00,,---,0.00,VWS V14.01,2013-09-11 12:42:00,
2013-09-11 08:47:00,72.7,71.5,30.09,SSE,165,0.0,0.0,96,0.00,,---,0.00,VWS V14.01,2013-09-11 12:47:00,
2013-09-11 08:52:00,72.8,71.6,30.09,SSE,165,0.0,0.0,96,0.00,,---,0.00,VWS V14.01,2013-09-11 12:52:00,
2013-09-11 08:57:00,73.2,72.0,30.09,SSE,165,0.0,0.0,96,0.00,,---,0.00,VWS V14.01,2013-09-11 12:57:00,
2013-09-11 09:02:00,73.3,72.1,30.09,SSE,165,0.0,0.0,96,0.00,,---,0.00,VWS V14.01,2013-09-11 13:02:00,
2013-09-11 09:07:00,73.5,72.3,30.10,SSE,165,0.0,0.0,96,0.00,,---,0.00,VWS V14.01,2013-09-11 13:07:00,
2013-09-11 09:13:00,73.9,72.7,30.10,SSE,165,0.0,0.0,96,0.00,,---,0.00,VWS V14.01,2013-09-11 13:13:00,
2013-09-11 09:18:00,74.0,72.8,30.10,SSE,165,0.0,0.0,96,0.00,,---,0.00,VWS V14.01,2013-09-11 13:18:00,
2013-09-11 09:23:00,74.4,73.2,30.10,SSE,165,0.0,0.0,96,0.00,,---,0.00,VWS V14.01,2013-09-11 13:23:00,
2013-09-11 09:29:00,74.7,73.5,30.10,SSE,165,0.0,0.0,96,0.00,,---,0.00,VWS V14.01,2013-09-11 13:29:00,
2013-09-11 09:34:00,75.1,73.9,30.09,SSE,165,0.0,0.0,96,0.00,,---,0.00,VWS V14.01,2013-09-11 13:34:00,
2013-09-11 09:39:00,75.4,73.9,30.10,SSE,165,0.0,0.0,95,0.00,,---,0.00,VWS V14.01,2013-09-11 13:39:00,
2013-09-11 09:44:00,75.8,74.3,30.09,SSE,165,0.0,0.0,95,0.00,,---,0.00,VWS V14.01,2013-09-11 13:44:00,
2013-09-11 09:49:00,76.1,74.2,30.10,SSE,165,0.0,0.0,94,0.00,,---,0.00,VWS V14.01,2013-09-11 13:49:00,
2013-09-11 09:54:00,76.5,74.3,30.09,SSE,165,0.0,0.0,93,0.00,,---,0.00,VWS V14.01,2013-09-11 13:54:00,
2013-09-11 09:59:00,76.8,74.3,30.09,SSE,165,0.0,0.0,92,0.00,,---,0.00,VWS V14.01,2013-09-11 13:59:00,
2013-09-11 10:04:00,77.2,74.4,30.09,SSE,165,0.0,0.0,91,0.00,,---,0.00,VWS V14.01,2013-09-11 14:04:00,
2013-09-11 10:09:00,77.6,74.4,30.09,SSE,165,0.0,0.0,90,0.00,,---,0.00,VWS V14.01,2013-09-11 14:09:00,
2013-09-11 10:14:00,78.1,74.3,30.09,SSE,165,0.0,0.0,88,0.00,,---,0.00,VWS V14.01,2013-09-11 14:14:00,
2013-09-11 10:20:00,78.6,74.4,30.09,SSE,165,0.0,0.0,87,0.00,,---,0.00,VWS V14.01,2013-09-11 14:20:00,
2013-09-11 10:25:00,79.2,74.3,30.09,SSE,165,0.0,0.0,85,0.00,,---,0.00,VWS V14.01,2013-09-11 14:25:00,
2013-09-11 10:31:00,79.8,74.2,30.08,SSE,165,0.0,0.0,83,0.00,,---,0.00,VWS V14.01,2013-09-11 14:31:00,
2013-09-11 10:36:00,80.3,74.3,30.08,SSE,165,0.0,0.0,82,0.00,,---,0.00,VWS V14.01,2013-09-11 14:36:00,
2013-09-11 10:41:00,80.7,74.0,30.08,SSE,165,0.0,0.0,80,0.00,,---,0.00,VWS V14.01,2013-09-11 14:41:00,
2013-09-11 10:46:00,81.2,74.1,30.08,SSE,165,0.0,0.0,79,0.00,,---,0.00,VWS V14.01,2013-09-11 14:46:00,
2013-09-11 10:52:00,81.6,74.1,30.08,SSE,165,0.0,0.0,78,0.00,,---,0.00,VWS V14.01,2013-09-11 14:52:00,
2013-09-11 10:57:00,82.2,74.3,30.08,SSE,165,0.0,0.0,77,0.00,,---,0.00,VWS V14.01,2013-09-11 14:57:00,
2013-09-11 11:03:00,82.6,74.3,30.08,SSE,165,0.0,0.0,76,0.00,,---,0.00,VWS V14.01,2013-09-11 15:03:00,
2013-09-11 11:08:00,83.2,74.8,30.08,SSE,165,0.0,0.0,76,0.00,,---,0.00,VWS V14.01,2013-09-11 15:08:00,
2013-09-11 11:13:00,83.4,75.1,30.08,SSE,165,0.0,0.0,76,0.00,,---,0.00,VWS V14.01,2013-09-11 15:13:00,
2013-09-11 11:18:00,84.0,75.6,30.08,SSE,165,0.0,0.0,76,0.00,,---,0.00,VWS V14.01,2013-09-11 15:18:00,
2013-09-11 11:23:00,84.5,75.7,30.08,SSE,165,0.0,0.0,75,0.00,,---,0.00,VWS V14.01,2013-09-11 15:23:00,
2013-09-11 11:28:00,84.9,75.3,30.07,SSE,165,0.0,0.0,73,0.00,,---,0.00,VWS V14.01,2013-09-11 15:28:00,
2013-09-11 11:33:00,85.5,75.4,30.07,SSE,165,0.0,0.0,72,0.00,,---,0.00,VWS V14.01,2013-09-11 15:33:00,
2013-09-11 11:38:00,85.9,75.4,30.07,SSE,165,0.0,0.0,71,0.00,,---,0.00,VWS V14.01,2013-09-11 15:38:00,
2013-09-11 11:43:00,86.5,76.4,30.07,SSE,165,0.0,0.0,72,0.00,,---,0.00,VWS V14.01,2013-09-11 15:43:00,
2013-09-11 11:48:00,87.0,75.6,30.07,SSE,165,0.0,0.0,69,0.00,,---,0.00,VWS V14.01,2013-09-11 15:48:00,
2013-09-11 11:53:00,87.4,76.0,30.07,SSE,165,0.0,0.0,69,0.00,,---,0.00,VWS V14.01,2013-09-11 15:53:00,
2013-09-11 11:58:00,87.8,75.0,30.06,SSE,165,0.0,0.0,66,0.00,,---,0.00,VWS V14.01,2013-09-11 15:58:00,
2013-09-11 12:03:00,88.4,76.1,30.06,SSE,165,0.0,0.0,67,0.00,,---,0.00,VWS V14.01,2013-09-11 16:03:00,
2013-09-11 12:08:00,89.0,77.1,30.06,SSE,165,0.0,0.0,68,0.00,,---,0.00,VWS V14.01,2013-09-11 16:08:00,
2013-09-11 12:14:00,89.5,76.2,30.06,SSE,165,0.0,0.0,65,0.00,,---,0.00,VWS V14.01,2013-09-11 16:14:00,
2013-09-11 12:20:00,90.1,76.8,30.06,SSE,165,0.0,0.0,65,0.00,,---,0.00,VWS V14.01,2013-09-11 16:20:00,
2013-09-11 12:25:00,90.7,75.4,30.05,SW,223,0.0,1.0,61,0.00,,---,0.00,VWS V14.01,2013-09-11 16:25:00,
2013-09-11 12:30:00,90.7,75.4,30.05,SW,223,0.0,0.0,61,0.00,,---,0.00,VWS V14.01,2013-09-11 16:30:00,
2013-09-11 12:35:00,91.0,76.2,30.05,SW,223,0.0,0.0,62,0.00,,---,0.00,VWS V14.01,2013-09-11 16:35:00,
2013-09-11 12:40:00,91.2,76.4,30.05,SW,221,0.0,0.0,62,0.00,,---,0.00,VWS V14.01,2013-09-11 16:40:00,
2013-09-11 12:46:00,91.4,76.1,30.05,SW,221,0.0,2.0,61,0.00,,---,0.00,VWS V14.01,2013-09-11 16:46:00,
2013-09-11 12:51:00,91.0,76.2,30.05,NW,322,0.0,0.0,62,0.00,,---,0.00,VWS V14.01,2013-09-11 16:51:00,
2013-09-11 12:57:00,91.2,76.4,30.05,NW,313,0.0,1.0,62,0.00,,---,0.00,VWS V14.01,2013-09-11 16:57:00,
2013-09-11 13:03:00,91.2,76.4,30.04,West,262,0.0,0.0,62,0.00,,---,0.00,VWS V14.01,2013-09-11 17:03:00,
2013-09-11 13:08:00,91.4,76.6,30.05,SSW,212,0.0,1.0,62,0.00,,---,0.00,VWS V14.01,2013-09-11 17:08:00,
2013-09-11 13:13:00,91.6,76.2,30.04,SW,216,1.0,1.0,61,0.00,,---,0.00,VWS V14.01,2013-09-11 17:13:00,
2013-09-11 13:18:00,91.6,75.8,30.04,South,170,0.0,1.0,60,0.00,,---,0.00,VWS V14.01,2013-09-11 17:18:00,
2013-09-11 13:24:00,92.1,75.7,30.03,SSW,210,0.0,0.0,59,0.00,,---,0.00,VWS V14.01,2013-09-11 17:24:00,
2013-09-11 13:29:00,92.5,76.1,30.03,SSE,165,3.0,3.0,59,0.00,,---,0.00,VWS V14.01,2013-09-11 17:29:00,
2013-09-11 13:35:00,92.5,75.6,30.03,NNW,338,0.0,1.0,58,0.00,,---,0.00,VWS V14.01,2013-09-11 17:35:00,
2013-09-11 13:40:00,92.3,74.9,30.03,WSW,247,1.0,4.0,57,0.00,,---,0.00,VWS V14.01,2013-09-11 17:40:00,
2013-09-11 13:46:00,91.8,74.9,30.03,South,180,0.0,1.0,58,0.00,,---,0.00,VWS V14.01,2013-09-11 17:46:00,
2013-09-11 13:51:00,91.2,73.8,30.02,West,259,1.0,1.0,57,0.00,,---,0.00,VWS V14.01,2013-09-11 17:51:00,
2013-09-11 13:56:00,91.2,75.4,30.03,SSW,207,1.0,2.0,60,0.00,,---,0.00,VWS V14.01,2013-09-11 17:56:00,
2013-09-11 14:01:00,91.2,75.4,30.02,South,184,1.0,1.0,60,0.00,,---,0.00,VWS V14.01,2013-09-11 18:01:00,
2013-09-11 14:06:00,91.2,75.4,30.03,NNE,26,0.0,1.0,60,0.00,,---,0.00,VWS V14.01,2013-09-11 18:06:00,
2013-09-11 14:11:00,91.0,75.7,30.02,WSW,255,3.0,3.0,61,0.00,,---,0.00,VWS V14.01,2013-09-11 18:11:00,
2013-09-11 14:16:00,90.7,75.9,30.02,SSW,211,0.0,0.0,62,0.00,,---,0.00,VWS V14.01,2013-09-11 18:16:00,
2013-09-11 14:21:00,90.7,75.4,30.02,SW,225,0.0,0.0,61,0.00,,---,0.00,VWS V14.01,2013-09-11 18:21:00,
2013-09-11 14:27:00,90.5,75.2,30.02,SW,225,0.0,0.0,61,0.00,,---,0.00,VWS V14.01,2013-09-11 18:27:00,
2013-09-11 14:32:00,90.5,74.7,30.01,SSW,196,0.0,0.0,60,0.00,,---,0.00,VWS V14.01,2013-09-11 18:32:00,
2013-09-11 14:37:00,90.5,74.2,30.01,NNE,20,0.0,0.0,59,0.00,,---,0.00,VWS V14.01,2013-09-11 18:37:00,
2013-09-11 14:42:00,90.5,73.7,30.01,SE,131,0.0,1.0,58,0.00,,---,0.00,VWS V14.01,2013-09-11 18:42:00,
2013-09-11 14:47:00,90.3,74.0,30.01,SSE,159,0.0,0.0,59,0.00,,---,0.00,VWS V14.01,2013-09-11 18:47:00,
2013-09-11 14:52:00,90.3,74.0,30.01,WSW,248,6.0,6.0,59,0.00,,---,0.00,VWS V14.01,2013-09-11 18:52:00,
2013-09-11 14:58:00,90.3,73.0,30.01,SSE,165,0.0,3.0,57,0.00,,---,0.00,VWS V14.01,2013-09-11 18:58:00,
2013-09-11 15:03:00,90.3,73.5,30.01,WSW,244,0.0,0.0,58,0.00,,---,0.00,VWS V14.01,2013-09-11 19:03:00,
2013-09-11 15:09:00,90.5,73.7,30.01,ENE,59,0.0,0.0,58,0.00,,---,0.00,VWS V14.01,2013-09-11 19:09:00,
2013-09-11 15:14:00,91.0,74.2,30.00,WNW,292,0.0,0.0,58,0.00,,---,0.00,VWS V14.01,2013-09-11 19:14:00,
2013-09-11 15:19:00,91.0,73.7,30.00,SSE,154,0.0,0.0,57,0.00,,---,0.00,VWS V14.01,2013-09-11 19:19:00,
2013-09-11 15:24:00,90.7,73.9,30.00,SSE,156,0.0,0.0,58,0.00,,---,0.00,VWS V14.01,2013-09-11 19:24:00,
2013-09-11 15:30:00,90.5,75.7,30.00,North,360,0.0,0.0,62,0.00,,---,0.00,VWS V14.01,2013-09-11 19:30:00,
2013-09-11 15:35:00,90.5,74.2,30.00,West,269,1.0,2.0,59,0.00,,---,0.00,VWS V14.01,2013-09-11 19:35:00,
2013-09-11 15:40:00,90.5,74.2,29.99,NE,36,0.0,0.0,59,0.00,,---,0.00,VWS V14.01,2013-09-11 19:40:00,
2013-09-11 15:45:00,90.3,74.0,29.99,West,264,0.0,2.0,59,0.00,,---,0.00,VWS V14.01,2013-09-11 19:45:00,
2013-09-11 15:50:00,90.1,73.3,29.99,SE,130,0.0,1.0,58,0.00,,---,0.00,VWS V14.01,2013-09-11 19:50:00,
2013-09-11 15:55:00,90.1,73.8,29.99,SE,130,0.0,0.0,59,0.00,,---,0.00,VWS V14.01,2013-09-11 19:55:00,
2013-09-11 16:01:00,89.9,74.2,29.99,ESE,117,0.0,1.0,60,0.00,,---,0.00,VWS V14.01,2013-09-11 20:01:00,
2013-09-11 16:07:00,89.9,74.2,29.99,SSE,155,1.0,3.0,60,0.00,,---,0.00,VWS V14.01,2013-09-11 20:07:00,
2013-09-11 16:12:00,89.7,74.0,29.99,SSE,160,1.0,2.0,60,0.00,,---,0.00,VWS V14.01,2013-09-11 20:12:00,
2013-09-11 16:17:00,89.7,73.5,29.99,West,264,0.0,1.0,59,0.00,,---,0.00,VWS V14.01,2013-09-11 20:17:00,
2013-09-11 16:22:00,89.7,74.0,29.98,SSW,199,0.0,0.0,60,0.00,,---,0.00,VWS V14.01,2013-09-11 20:22:00,
2013-09-11 16:27:00,89.9,74.7,29.98,SSW,199,0.0,0.0,61,0.00,,---,0.00,VWS V14.01,2013-09-11 20:27:00,
2013-09-11 16:33:00,90.5,75.2,29.98,SSW,199,0.0,0.0,61,0.00,,---,0.00,VWS V14.01,2013-09-11 20:33:00,
2013-09-11 16:38:00,90.7,74.4,29.97,SSW,208,0.0,0.0,59,0.00,,---,0.00,VWS V14.01,2013-09-11 20:38:00,
2013-09-11 16:43:00,91.0,74.7,29.97,South,188,1.0,1.0,59,0.00,,---,0.00,VWS V14.01,2013-09-11 20:43:00,
2013-09-11 16:49:00,91.0,74.7,29.97,SSE,156,1.0,1.0,59,0.00,,---,0.00,VWS V14.01,2013-09-11 20:49:00,
2013-09-11 16:54:00,91.0,75.2,29.97,WNW,297,0.0,0.0,60,0.00,,---,0.00,VWS V14.01,2013-09-11 20:54:00,
2013-09-11 16:59:00,90.7,74.4,29.97,South,190,0.0,0.0,59,0.00,,---,0.00,VWS V14.01,2013-09-11 20:59:00,
2013-09-11 17:04:00,90.3,75.0,29.97,SSW,193,0.0,1.0,61,0.00,,---,0.00,VWS V14.01,2013-09-11 21:04:00,
2013-09-11 17:09:00,89.9,74.7,29.97,South,190,0.0,1.0,61,0.00,,---,0.00,VWS V14.01,2013-09-11 21:09:00,
2013-09-11 17:14:00,89.3,74.6,29.97,SSE,159,0.0,1.0,62,0.00,,---,0.00,VWS V14.01,2013-09-11 21:14:00,
2013-09-11 17:19:00,88.6,74.4,29.97,WSW,254,1.0,1.0,63,0.00,,---,0.00,VWS V14.01,2013-09-11 21:19:00,
2013-09-11 17:24:00,87.8,73.6,29.97,SSE,156,0.0,1.0,63,0.00,,---,0.00,VWS V14.01,2013-09-11 21:24:00,
2013-09-11 17:29:00,87.4,73.7,29.97,SE,136,0.0,1.0,64,0.00,,---,0.00,VWS V14.01,2013-09-11 21:29:00,
2013-09-11 17:34:00,87.0,73.8,29.97,SSE,155,2.0,2.0,65,0.00,,---,0.00,VWS V14.01,2013-09-11 21:34:00,
2013-09-11 17:40:00,86.5,72.9,29.97,ENE,59,0.0,1.0,64,0.00,,---,0.00,VWS V14.01,2013-09-11 21:40:00,
2013-09-11 17:45:00,86.3,73.2,29.97,South,175,0.0,0.0,65,0.00,,---,0.00,VWS V14.01,2013-09-11 21:45:00,
2013-09-11 17:50:00,86.3,73.6,29.96,South,174,0.0,0.0,66,0.00,,---,0.00,VWS V14.01,2013-09-11 21:50:00,
2013-09-11 17:55:00,85.9,72.8,29.96,SSE,160,1.0,1.0,65,0.00,,---,0.00,VWS V14.01,2013-09-11 21:55:00,
2013-09-11 18:00:00,85.5,72.4,29.96,SSE,155,0.0,0.0,65,0.00,,---,0.00,VWS V14.01,2013-09-11 22:00:00,
2013-09-11 18:07:00,84.7,71.6,29.97,SSE,149,0.0,0.0,65,0.00,,---,0.00,VWS V14.01,2013-09-11 22:07:00,
2013-09-11 18:12:00,84.3,72.2,29.98,SSE,149,0.0,0.0,67,0.00,,---,0.00,VWS V14.01,2013-09-11 22:12:00,
2013-09-11 18:17:00,84.0,71.4,29.98,SSE,157,0.0,2.0,66,0.00,,---,0.00,VWS V14.01,2013-09-11 22:17:00,
2013-09-11 18:22:00,83.6,71.5,29.99,SSE,157,0.0,0.0,67,0.00,,---,0.00,VWS V14.01,2013-09-11 22:22:00,
2013-09-11 18:27:00,83.2,71.6,29.99,SSE,157,0.0,0.0,68,0.00,,---,0.00,VWS V14.01,2013-09-11 22:27:00,
2013-09-11 18:32:00,82.8,71.2,30.00,SSE,159,0.0,1.0,68,0.00,,---,0.00,VWS V14.01,2013-09-11 22:32:00,
2013-09-11 18:37:00,82.4,71.2,29.99,SSE,159,0.0,0.0,69,0.00,,---,0.00,VWS V14.01,2013-09-11 22:37:00,
2013-09-11 18:43:00,82.0,70.8,29.99,SSE,148,0.0,0.0,69,0.00,,---,0.00,VWS V14.01,2013-09-11 22:43:00,
2013-09-11 18:48:00,81.6,70.9,29.98,SSE,157,0.0,0.0,70,0.00,,---,0.00,VWS V14.01,2013-09-11 22:48:00,
2013-09-11 18:53:00,81.4,70.7,29.99,SSE,157,0.0,0.0,70,0.00,,---,0.00,VWS V14.01,2013-09-11 22:53:00,
2013-09-11 18:58:00,81.1,70.8,29.99,SSE,157,0.0,0.0,71,0.00,,---,0.00,VWS V14.01,2013-09-11 22:58:00,
2013-09-11 19:03:00,80.9,70.6,29.99,East,90,0.0,1.0,71,0.00,,---,0.00,VWS V14.01,2013-09-11 23:03:00,
2013-09-11 19:08:00,80.5,70.7,29.99,ESE,121,0.0,0.0,72,0.00,,---,0.00,VWS V14.01,2013-09-11 23:08:00,
2013-09-11 19:13:00,80.3,70.5,29.99,ESE,121,0.0,0.0,72,0.00,,---,0.00,VWS V14.01,2013-09-11 23:13:00,
2013-09-11 19:18:00,80.1,70.3,29.99,ESE,121,0.0,1.0,72,0.00,,---,0.00,VWS V14.01,2013-09-11 23:18:00,
2013-09-11 19:23:00,79.9,70.1,29.99,ESE,123,0.0,0.0,72,0.00,,---,0.00,VWS V14.01,2013-09-11 23:23:00,
2013-09-11 19:28:00,79.8,70.4,29.99,SE,137,0.0,1.0,73,0.00,,---,0.00,VWS V14.01,2013-09-11 23:28:00,
2013-09-11 19:33:00,79.6,70.2,29.99,SE,137,0.0,0.0,73,0.00,,---,0.00,VWS V14.01,2013-09-11 23:33:00,
2013-09-11 19:38:00,79.4,70.0,30.00,SE,137,0.0,1.0,73,0.00,,---,0.00,VWS V14.01,2013-09-11 23:38:00,
2013-09-11 19:43:00,79.2,70.2,30.00,SE,137,0.0,2.0,74,0.00,,---,0.00,VWS V14.01,2013-09-11 23:43:00,
2013-09-11 19:48:00,79.0,70.0,30.00,SE,137,0.0,0.0,74,0.00,,---,0.00,VWS V14.01,2013-09-11 23:48:00,
2013-09-11 19:53:00,79.0,70.0,30.00,SE,137,0.0,0.0,74,0.00,,---,0.00,VWS V14.01,2013-09-11 23:53:00,
2013-09-11 19:58:00,78.8,69.8,30.00,SE,137,0.0,0.0,74,0.00,,---,0.00,VWS V14.01,2013-09-11 23:58:00,
2013-09-11 20:03:00,78.6,69.6,30.00,SE,137,0.0,0.0,74,0.00,,---,0.00,VWS V14.01,2013-09-12 00:03:00,
2013-09-11 20:08:00,78.5,69.9,29.99,SE,137,0.0,0.0,75,0.00,,---,0.00,VWS V14.01,2013-09-12 00:08:00,
2013-09-11 20:13:00,78.5,69.9,30.00,SE,137,0.0,0.0,75,0.00,,---,0.00,VWS V14.01,2013-09-12 00:13:00,
2013-09-11 20:18:00,78.3,69.7,30.00,SE,137,0.0,0.0,75,0.00,,---,0.00,VWS V14.01,2013-09-12 00:18:00,
2013-09-11 20:23:00,78.1,69.9,30.00,SE,137,0.0,0.0,76,0.00,,---,0.00,VWS V14.01,2013-09-12 00:23:00,
2013-09-11 20:28:00,78.1,69.9,30.00,SE,137,0.0,0.0,76,0.00,,---,0.00,VWS V14.01,2013-09-12 00:28:00,
2013-09-11 20:34:00,77.9,70.1,30.00,SE,137,0.0,0.0,77,0.00,,---,0.00,VWS V14.01,2013-09-12 00:34:00,
2013-09-11 20:39:00,77.7,69.9,30.00,SE,137,0.0,0.0,77,0.00,,---,0.00,VWS V14.01,2013-09-12 00:39:00,
2013-09-11 20:45:00,77.6,69.8,30.00,SE,132,0.0,0.0,77,0.00,,---,0.00,VWS V14.01,2013-09-12 00:45:00,
2013-09-11 20:51:00,77.4,69.6,30.00,SE,132,0.0,0.0,77,0.00,,---,0.00,VWS V14.01,2013-09-12 00:51:00,
2013-09-11 20:56:00,77.4,69.6,30.00,SE,132,0.0,0.0,77,0.00,,---,0.00,VWS V14.01,2013-09-12 00:56:00,
2013-09-11 21:01:00,77.4,69.6,30.00,SE,132,0.0,0.0,77,0.00,,---,0.00,VWS V14.01,2013-09-12 01:01:00,
2013-09-11 21:06:00,77.2,69.4,30.00,ENE,73,0.0,0.0,77,0.00,,---,0.00,VWS V14.01,2013-09-12 01:06:00,
2013-09-11 21:11:00,77.2,69.8,30.01,ENE,73,0.0,0.0,78,0.00,,---,0.00,VWS V14.01,2013-09-12 01:11:00,
2013-09-11 21:16:00,77.2,69.8,30.00,ENE,73,0.0,0.0,78,0.00,,---,0.00,VWS V14.01,2013-09-12 01:16:00,
2013-09-11 21:21:00,77.2,69.8,30.00,ENE,73,0.0,0.0,78,0.00,,---,0.00,VWS V14.01,2013-09-12 01:21:00,
2013-09-11 21:26:00,77.0,69.6,30.00,ENE,73,0.0,0.0,78,0.00,,---,0.00,VWS V14.01,2013-09-12 01:26:00,
2013-09-11 21:31:00,77.0,70.0,30.01,ENE,73,0.0,0.0,79,0.00,,---,0.00,VWS V14.01,2013-09-12 01:31:00,
2013-09-11 21:36:00,76.8,69.8,30.01,ENE,73,0.0,0.0,79,0.00,,---,0.00,VWS V14.01,2013-09-12 01:36:00,
2013-09-11 21:42:00,76.8,69.8,30.01,ENE,73,0.0,0.0,79,0.00,,---,0.00,VWS V14.01,2013-09-12 01:42:00,
2013-09-11 21:47:00,76.7,69.7,30.01,ENE,73,0.0,0.0,79,0.00,,---,0.00,VWS V14.01,2013-09-12 01:47:00,
2013-09-11 21:52:00,76.7,69.7,30.01,ENE,73,0.0,0.0,79,0.00,,---,0.00,VWS V14.01,2013-09-12 01:52:00,
2013-09-11 21:57:00,76.7,70.1,30.01,NNW,348,0.0,1.0,80,0.00,,---,0.00,VWS V14.01,2013-09-12 01:57:00,
2013-09-11 22:02:00,76.7,70.1,30.01,North,355,0.0,0.0,80,0.00,,---,0.00,VWS V14.01,2013-09-12 02:02:00,
2013-09-11 22:08:00,76.5,69.9,30.01,North,355,0.0,0.0,80,0.00,,---,0.00,VWS V14.01,2013-09-12 02:08:00,
2013-09-11 22:13:00,76.3,69.7,30.01,North,355,0.0,0.0,80,0.00,,---,0.00,VWS V14.01,2013-09-12 02:13:00,
2013-09-11 22:18:00,76.3,70.1,30.01,North,355,0.0,0.0,81,0.00,,---,0.00,VWS V14.01,2013-09-12 02:18:00,
2013-09-11 22:23:00,76.1,69.8,30.02,North,355,0.0,0.0,81,0.00,,---,0.00,VWS V14.01,2013-09-12 02:23:00,
2013-09-11 22:29:00,76.1,69.8,30.02,North,355,0.0,0.0,81,0.00,,---,0.00,VWS V14.01,2013-09-12 02:29:00,
2013-09-11 22:34:00,76.0,70.1,30.01,North,355,0.0,0.0,82,0.00,,---,0.00,VWS V14.01,2013-09-12 02:34:00,
2013-09-11 22:39:00,75.8,69.9,30.01,North,355,0.0,0.0,82,0.00,,---,0.00,VWS V14.01,2013-09-12 02:39:00,
2013-09-11 22:44:00,75.8,70.3,30.01,North,355,0.0,0.0,83,0.00,,---,0.00,VWS V14.01,2013-09-12 02:44:00,
2013-09-11 22:49:00,75.6,70.1,30.01,North,355,0.0,0.0,83,0.00,,---,0.00,VWS V14.01,2013-09-12 02:49:00,
2013-09-11 22:55:00,75.4,69.9,30.00,North,355,0.0,0.0,83,0.00,,---,0.00,VWS V14.01,2013-09-12 02:55:00,
2013-09-11 23:00:00,75.3,70.1,30.00,North,355,0.0,0.0,84,0.00,,---,0.00,VWS V14.01,2013-09-12 03:00:00,
2013-09-11 23:06:00,75.1,69.9,30.00,North,355,0.0,0.0,84,0.00,,---,0.00,VWS V14.01,2013-09-12 03:06:00,
2013-09-11 23:11:00,74.7,69.9,30.00,North,355,0.0,0.0,85,0.00,,---,0.00,VWS V14.01,2013-09-12 03:11:00,
2013-09-11 23:17:00,74.6,69.8,30.00,North,355,0.0,0.0,85,0.00,,---,0.00,VWS V14.01,2013-09-12 03:17:00,
2013-09-11 23:22:00,74.6,69.8,30.00,North,355,0.0,0.0,85,0.00,,---,0.00,VWS V14.01,2013-09-12 03:22:00,
2013-09-11 23:27:00,74.4,69.6,29.99,North,355,0.0,0.0,85,0.00,,---,0.00,VWS V14.01,2013-09-12 03:27:00,
2013-09-11 23:32:00,74.2,69.8,29.99,North,355,0.0,0.0,86,0.00,,---,0.00,VWS V14.01,2013-09-12 03:32:00,
2013-09-11 23:37:00,74.2,69.8,29.99,North,355,0.0,0.0,86,0.00,,---,0.00,VWS V14.01,2013-09-12 03:37:00,
2013-09-11 23:42:00,74.0,69.6,29.98,North,355,0.0,0.0,86,0.00,,---,0.00,VWS V14.01,2013-09-12 03:42:00,
2013-09-11 23:48:00,73.9,69.4,29.98,North,355,0.0,0.0,86,0.00,,---,0.00,VWS V14.01,2013-09-12 03:48:00,
2013-09-11 23:53:00,73.9,69.4,29.98,North,355,0.0,0.0,86,0.00,,---,0.00,VWS V14.01,2013-09-12 03:53:00,
2013-09-11 23:59:00,73.7,69.3,29.97,North,355,0.0,0.0,86,0.00,,---,0.00,VWS V14.01,2013-09-12 03:59:00,